| time (UTC) | temp F | wind direction | speed MPH | gust MPH | rain 1hr in | rain 24hr in | rain mn in | humidity % | barometer mb |
| 20260901010056 | 54 | 325 | 0.0 | 1.0 | 0.00 | 0.00 | 0.00 | 89 | 1008.3 |
| 20260901004557 | 54 | 325 | 0.0 | 1.0 | 0.00 | 0.00 | 0.00 | 88 | 1008.2 |
| 20260901003054 | 55 | 323 | 0.0 | 5.0 | 0.00 | 0.00 | 0.00 | 88 | 1008.2 |
| 20260901001559 | 55 | 293 | 0.0 | 3.0 | 0.00 | 0.00 | 0.00 | 88 | 1008.3 |
| 20260901000056 | 54 | 344 | 0.0 | 4.0 | 0.00 | 0.00 | 0.00 | 88 | 1008.2 |
| 20260831234613 | 54 | 313 | 0.0 | 4.0 | 0.00 | 0.00 | 0.00 | 87 | 1008.1 |
| 20260831233059 | 55 | 288 | 3.0 | 6.0 | 0.00 | 0.00 | 0.00 | 89 | 1008.1 |
| 20260831231546 | 54 | 305 | 1.0 | 3.0 | 0.00 | 0.00 | 0.00 | 89 | 1008.0 |
| 20260831230045 | 54 | 320 | 0.0 | 4.0 | 0.00 | 0.00 | 0.00 | 88 | 1007.9 |
| 20260831224541 | 54 | 327 | 1.0 | 3.0 | 0.00 | 0.00 | 0.00 | 88 | 1007.8 |
| 20260831223039 | 55 | 324 | 2.0 | 5.0 | 0.00 | 0.00 | 0.00 | 88 | 1007.8 |
| 20260831221537 | 55 | 292 | 2.0 | 6.0 | 0.00 | 0.00 | 0.00 | 88 | 1007.6 |
| 20260831220035 | 55 | 322 | 4.0 | 9.0 | 0.00 | 0.00 | 0.00 | 87 | 1007.6 |
| 20260831214533 | 55 | 319 | 5.0 | 8.0 | 0.00 | 0.00 | 0.00 | 87 | 1007.6 |
| 20260831213031 | 55 | 325 | 4.0 | 9.0 | 0.00 | 0.00 | 0.00 | 87 | 1007.6 |
| 20260831211530 | 55 | 324 | 4.0 | 9.0 | 0.00 | 0.00 | 0.00 | 86 | 1007.4 |
| 20260831210028 | 55 | 326 | 5.0 | 9.0 | 0.00 | 0.00 | 0.00 | 86 | 1007.2 |
| 20260831204529 | 56 | 329 | 4.0 | 8.0 | 0.00 | 0.00 | 0.00 | 85 | 1007.1 |
| 20260831203028 | 56 | 321 | 3.0 | 8.0 | 0.00 | 0.00 | 0.00 | 86 | 1007.1 |
| 20260831201622 | 56 | 330 | 3.0 | 6.0 | 0.00 | 0.00 | 0.00 | 85 | 1007.1 |
| 20260831200021 | 56 | 345 | 3.0 | 7.0 | 0.00 | 0.00 | 0.00 | 85 | 1007.0 |
| 20260831194519 | 56 | 306 | 3.0 | 9.0 | 0.00 | 0.00 | 0.00 | 85 | 1007.0 |
| 20260831193020 | 57 | 334 | 3.0 | 7.0 | 0.00 | 0.00 | 0.00 | 83 | 1006.9 |
| 20260831191517 | 57 | 315 | 3.0 | 7.0 | 0.00 | 0.00 | 0.00 | 82 | 1006.8 |
| 20260831190017 | 57 | 299 | 3.0 | 8.0 | 0.00 | 0.00 | 0.00 | 82 | 1006.6 |
| 20260831184515 | 58 | 301 | 4.0 | 9.0 | 0.00 | 0.00 | 0.00 | 81 | 1006.5 |
| 20260831183013 | 58 | 309 | 5.0 | 10.0 | 0.00 | 0.00 | 0.00 | 80 | 1006.3 |
| 20260831181512 | 58 | 302 | 4.0 | 10.0 | 0.00 | 0.00 | 0.00 | 79 | 1006.2 |
| 20260831180016 | 58 | 318 | 5.0 | 9.0 | 0.00 | 0.00 | 0.00 | 79 | 1006.0 |
| 20260831174511 | 59 | 317 | 4.0 | 8.0 | 0.00 | 0.00 | 0.00 | 79 | 1005.9 |
| 20260831173012 | 60 | 308 | 4.0 | 9.0 | 0.00 | 0.00 | 0.00 | 77 | 1005.9 |
| 20260831171509 | 60 | 317 | 3.0 | 8.0 | 0.00 | 0.00 | 0.00 | 77 | 1005.8 |
| 20260831170007 | 61 | 333 | 8.0 | 12.0 | 0.00 | 0.00 | 0.00 | 76 | 1005.7 |
| 20260831164506 | 61 | 310 | 5.0 | 10.0 | 0.00 | 0.00 | 0.00 | 75 | 1005.6 |
| 20260831163006 | 62 | 293 | 5.0 | 10.0 | 0.00 | 0.00 | 0.00 | 75 | 1005.6 |
| 20260831161506 | 62 | 284 | 6.0 | 10.0 | 0.00 | 0.00 | 0.00 | 74 | 1005.5 |
| 20260831160005 | 62 | 257 | 6.0 | 14.0 | 0.00 | 0.00 | 0.00 | 74 | 1005.4 |
| 20260831154504 | 62 | 260 | 8.0 | 12.0 | 0.00 | 0.00 | 0.00 | 74 | 1005.4 |
| 20260831153004 | 62 | 277 | 6.0 | 12.0 | 0.00 | 0.00 | 0.00 | 73 | 1005.4 |
| 20260831151503 | 62 | 338 | 4.0 | 10.0 | 0.00 | 0.00 | 0.00 | 72 | 1005.3 |
| 20260831150002 | 62 | 268 | 5.0 | 11.0 | 0.00 | 0.00 | 0.00 | 74 | 1005.1 |
| 20260831144601 | 62 | 276 | 8.0 | 12.0 | 0.00 | 0.00 | 0.00 | 76 | 1005.1 |
| 20260831143113 | 62 | 273 | 9.0 | 11.0 | 0.00 | 0.00 | 0.00 | 75 | 1005.1 |
| 20260831141604 | 62 | 270 | 8.0 | 11.0 | 0.00 | 0.00 | 0.00 | 74 | 1005.0 |
| 20260831140057 | 62 | 261 | 8.0 | 11.0 | 0.00 | 0.00 | 0.00 | 74 | 1005.0 |
| 20260831134555 | 62 | 269 | 5.0 | 10.0 | 0.00 | 0.00 | 0.00 | 74 | 1005.0 |
| 20260831133053 | 61 | 266 | 5.0 | 9.0 | 0.00 | 0.00 | 0.00 | 73 | 1005.0 |
| 20260831131551 | 61 | 245 | 6.0 | 10.0 | 0.00 | 0.00 | 0.00 | 72 | 1004.8 |
| 20260831130053 | 61 | 298 | 6.0 | 10.0 | 0.00 | 0.00 | 0.00 | 73 | 1004.8 |
| 20260831124549 | 61 | 272 | 5.0 | 9.0 | 0.00 | 0.00 | 0.00 | 72 | 1004.8 |
| 20260831123046 | 61 | 255 | 6.0 | 10.0 | 0.00 | 0.00 | 0.00 | 72 | 1004.8 |
| 20260831121545 | 61 | 259 | 6.0 | 10.0 | 0.00 | 0.00 | 0.00 | 71 | 1004.9 |
| 20260831120044 | 61 | 286 | 4.0 | 10.0 | 0.00 | 0.00 | 0.00 | 71 | 1004.7 |
| 20260831114549 | 60 | 252 | 5.0 | 10.0 | 0.00 | 0.00 | 0.00 | 72 | 1004.8 |
| 20260831113039 | 60 | 245 | 7.0 | 10.0 | 0.00 | 0.00 | 0.00 | 74 | 1004.8 |
| 20260831111539 | 61 | 265 | 5.0 | 10.0 | 0.00 | 0.00 | 0.00 | 71 | 1004.8 |
| 20260831110040 | 61 | 326 | 4.0 | 10.0 | 0.00 | 0.00 | 0.00 | 73 | 1004.8 |
| 20260831104540 | 61 | 301 | 7.0 | 11.0 | 0.00 | 0.00 | 0.00 | 74 | 1004.8 |
| 20260831103038 | 60 | 338 | 2.0 | 6.0 | 0.00 | 0.00 | 0.00 | 73 | 1004.8 |
| 20260831101541 | 60 | 343 | 3.0 | 6.0 | 0.00 | 0.00 | 0.00 | 75 | 1004.8 |
| 20260831100029 | 60 | 98 | 0.0 | 9.0 | 0.00 | 0.00 | 0.00 | 74 | 1004.7 |
| 20260831094528 | 60 | 328 | 5.0 | 8.0 | 0.00 | 0.00 | 0.00 | 74 | 1004.6 |
| 20260831093025 | 61 | 38 | 1.0 | 5.0 | 0.00 | 0.00 | 0.00 | 74 | 1004.6 |
| 20260831091535 | 60 | 327 | 1.0 | 6.0 | 0.00 | 0.00 | 0.00 | 75 | 1004.7 |
| 20260831090023 | 60 | 325 | 2.0 | 4.0 | 0.00 | 0.00 | 0.00 | 76 | 1004.8 |
| 20260831084522 | 59 | 45 | 2.0 | 6.0 | 0.00 | 0.00 | 0.00 | 74 | 1004.7 |
| 20260831083021 | 59 | 314 | 3.0 | 8.0 | 0.00 | 0.00 | 0.00 | 74 | 1004.8 |
| 20260831081521 | 59 | 307 | 3.0 | 6.0 | 0.00 | 0.00 | 0.00 | 73 | 1004.9 |
| 20260831080023 | 59 | 351 | 0.0 | 4.0 | 0.00 | 0.00 | 0.00 | 73 | 1004.9 |
| 20260831074519 | 60 | 338 | 3.0 | 6.0 | 0.00 | 0.00 | 0.00 | 71 | 1004.9 |
| 20260831073017 | 61 | 56 | 0.0 | 3.0 | 0.00 | 0.00 | 0.00 | 70 | 1004.8 |
| 20260831071513 | 60 | 5 | 0.0 | 3.0 | 0.00 | 0.00 | 0.00 | 71 | 1004.8 |
| 20260831070011 | 59 | 317 | 0.0 | 2.0 | 0.00 | 0.00 | 0.00 | 75 | 1004.8 |
| 20260831064507 | 57 | 5 | 0.0 | 0.0 | 0.00 | 0.00 | 0.00 | 79 | 1004.8 |
| 20260831063003 | 57 | 46 | 0.0 | 0.0 | 0.00 | 0.00 | 0.00 | 82 | 1005.0 |
| 20260831061506 | 57 | 336 | 0.0 | 0.0 | 0.00 | 0.00 | 0.00 | 86 | 1005.1 |
| 20260831060002 | 57 | 305 | 0.0 | 0.0 | 0.00 | 0.00 | 0.00 | 86 | 1005.2 |
| 20260831054501 | 56 | 305 | 0.0 | 0.0 | 0.00 | 0.00 | 0.00 | 83 | 1005.1 |
| 20260831053100 | 56 | 12 | 0.0 | 0.0 | 0.00 | 0.00 | 0.00 | 89 | 1005.1 |
| 20260831051559 | 56 | 12 | 0.0 | 0.0 | 0.00 | 0.00 | 0.00 | 89 | 1005.0 |
| 20260831050100 | 56 | 12 | 0.0 | 0.0 | 0.00 | 0.00 | 0.00 | 89 | 1005.0 |
| 20260831044620 | 56 | 51 | 0.0 | 0.0 | 0.00 | 0.00 | 0.00 | 89 | 1005.1 |
| 20260831043057 | 56 | 51 | 0.0 | 0.0 | 0.00 | 0.00 | 0.00 | 89 | 1005.1 |
| 20260831041612 | 56 | 104 | 0.0 | 0.0 | 0.00 | 0.00 | 0.00 | 90 | 1005.1 |
| 20260831040056 | 56 | 59 | 0.0 | 0.0 | 0.00 | 0.00 | 0.00 | 89 | 1005.0 |
| 20260831034556 | 56 | 19 | 0.0 | 0.0 | 0.00 | 0.00 | 0.00 | 90 | 1005.0 |
| 20260831033055 | 56 | 18 | 0.0 | 0.0 | 0.00 | 0.00 | 0.00 | 90 | 1005.0 |
| 20260831031554 | 56 | 18 | 0.0 | 0.0 | 0.00 | 0.00 | 0.00 | 89 | 1005.1 |
| 20260831030055 | 56 | 18 | 0.0 | 0.0 | 0.00 | 0.00 | 0.00 | 89 | 1005.1 |
| 20260831024553 | 56 | 18 | 0.0 | 0.0 | 0.00 | 0.00 | 0.00 | 89 | 1005.1 |
| 20260831023051 | 56 | 26 | 0.0 | 0.0 | 0.00 | 0.00 | 0.00 | 89 | 1005.2 |
| 20260831021554 | 56 | 26 | 0.0 | 0.0 | 0.00 | 0.00 | 0.00 | 89 | 1005.2 |
| 20260831020050 | 56 | 330 | 0.0 | 0.0 | 0.00 | 0.00 | 0.00 | 89 | 1005.5 |
| 20260831014550 | 56 | 327 | 0.0 | 0.0 | 0.00 | 0.00 | 0.00 | 89 | 1005.4 |
| 20260831013055 | 56 | 328 | 0.0 | 2.0 | 0.00 | 0.00 | 0.00 | 89 | 1005.6 |
| 20260831011549 | 56 | 329 | 1.0 | 3.0 | 0.00 | 0.00 | 0.00 | 88 | 1005.6 |